{"data":{"norad_id":63487,"epoch":"2026-09-20T22:08:17.037024Z","epoch_age_seconds":119913,"freshness":"FRESH","line1":"1 63487U 25070AD  26263.92241941  .00010235  00000+0  38093-3 0  9999","line2":"2 63487  43.0016 237.3052 0001577 259.1736 100.8939 15.27582214 82837","mean_motion":15.27582214,"eccentricity":0.0001577,"inclination_deg":43.0016,"raan_deg":237.3052,"arg_perigee_deg":259.1736,"mean_anomaly_deg":100.8939,"bstar":0.00038093,"rev_number":8283,"period_min":94.266612088219,"perigee_km":481.9604585333,"apogee_km":484.12447453705,"semimajor_km":6861.1794665352,"source":"CELESTRAK","updated_at":"2026-09-21T09:00:35.012770Z"}}